This is the latest recevied weather packets stored in our database for station/object N3TJJ-2. If no packets are shown the sender has not sent any weather packets the latest 1 day(s).
| Time | Temp. | Humidity | Pressure | Rain* | Wind** | Luminosity | Snow |
|---|---|---|---|---|---|---|---|
| 1778003595 | 26.67° C | 45% | 1010.2 hPa | 0 mm | 5.36 m/s, 42° | - | - |
| 1778003236 | 26.67° C | 47% | 1010.3 hPa | 0 mm | 4.47 m/s, 23° | - | - |
| 1778002879 | 26.67° C | 46% | 1010.3 hPa | 0 mm | 6.26 m/s, 37° | - | - |
| 1778002518 | 26.67° C | 45% | 1010.2 hPa | 0 mm | 6.26 m/s, 53° | - | - |
| 1778002156 | 26.67° C | 44% | 1010.4 hPa | 0 mm | 3.58 m/s, 53° | - | - |
| 1778001806 | 27.22° C | 43% | 1010.6 hPa | 0 mm | 5.36 m/s, 80° | - | - |
| 1778001454 | 26.67° C | 41% | 1010.6 hPa | 0 mm | 3.58 m/s, 79° | - | - |
| 1778001079 | 27.22° C | 42% | 1010.5 hPa | 0 mm | 6.26 m/s, 90° | - | - |
| 1778000721 | 27.78° C | 41% | 1010.8 hPa | 0 mm | 4.02 m/s, 88° | - | - |
| 1778000355 | 26.67° C | 43% | 1010.8 hPa | 0 mm | 4.92 m/s, 91° | - | - |
| 1777999996 | 26.67° C | 41% | 1010.9 hPa | 0 mm | 5.36 m/s, 87° | - | - |
| 1777999637 | 26.67° C | 42% | 1011 hPa | 0 mm | 6.26 m/s, 92° | - | - |
| 1777999278 | 26.67° C | 41% | 1011.1 hPa | 0 mm | 6.26 m/s, 87° | - | - |
| 1777998921 | 26.11° C | 41% | 1011.1 hPa | 0 mm | 4.92 m/s, 94° | - | - |
| 1777998556 | 26.11° C | 41% | 1011.3 hPa | 0 mm | 7.6 m/s, 93° | - | - |
| 1777998195 | 26.11° C | 43% | 1011.2 hPa | 0 mm | 5.81 m/s, 93° | - | - |
| 1777997836 | 26.11° C | 44% | 1011.3 hPa | 0 mm | 5.81 m/s, 93° | - | - |
| 1777997476 | 26.11° C | 43% | 1011.3 hPa | 0 mm | 6.71 m/s, 92° | - | - |
| 1777997123 | 26.11° C | 44% | 1011.3 hPa | 0 mm | 8.05 m/s, 97° | - | - |
| 1777996756 | 26.11° C | 44% | 1011.4 hPa | 0 mm | 6.26 m/s, 93° | - | - |
| 1777996395 | 25.56° C | 44% | 1011.4 hPa | 0 mm | 6.71 m/s, 96° | - | - |
| 1777996036 | 25.56° C | 44% | 1011.4 hPa | 0 mm | 7.15 m/s, 97° | - | - |
| 1777995676 | 25.56° C | 44% | 1011.4 hPa | 0 mm | 5.36 m/s, 92° | - | - |
| 1777995315 | 25.56° C | 46% | 1011.4 hPa | 0 mm | 7.15 m/s, 90° | - | - |
| 1777994957 | 25.56° C | 46% | 1011.4 hPa | 0 mm | 5.81 m/s, 92° | - | - |
* Rain latest hour (hover to see other rain measurements)
** Current wind speed in m/s (hover to see current wind gust speed)